Regional Weather Roundup
Issued by NWS

Home | Current Version | Previous Version | Graphics & Text | Print | Product List | Glossary On
Versions: 1 2 3 4 5 6 7 8 9 10 11 12 13 14 15 16 17 18 19 20 21 22 23 24 25 26 27 28 29 30 31 32 33 34 35 36 37 38 39 40 41 42 43 44 45 46 47 48 49 50
000
ASUS45 KABQ 041401
RWRNM
NEW MEXICO REGIONAL WEATHER ROUNDUP
NATIONAL WEATHER SERVICE ALBUQUERQUE NM
800 AM MDT SAT JUL 04 2015

NOTE: "FAIR" MEANS FEW OR NO CLOUDS BELOW 12,000 FEET AGL WITH NO
       SIGNIFICANT WEATHER OR OBSTRUCTIONS TO VISION.

      THIS PRODUCT IS RELEASED AS TWO VERSIONS.  ONE VERSION NEAR
      THE TOP OF THE HOUR CONTAINING PRELIMINARY DATA FROM ALBUQUERQUE
      AND OTHER STATIONS.  A FINAL VERSION WITH ADDITIONAL DATA IS
      ISSUED ABOUT 10 MINUTES AFTER THE HOUR.

NMZ501-503-504-510>518-041500-
NORTHWEST PLATEAU/NORTHCENTRAL MOUNTAINS

CITY           SKY/WX    TMP DP  RH WIND       PRES   REMARKS
FARMINGTON     SUNNY     67  52  58 SE6       30.16S
SANTA FE       MOSUNNY   69  55  60 SE10      30.23R
TAOS           SUNNY     61  46  59 CALM      30.30S

$$
NMZ402-403-502-505>509-041500-
WESTCENTRAL MOUNTAINS/SOUTHWEST MOUNTAINS

CITY           SKY/WX    TMP DP  RH WIND       PRES   REMARKS
GALLUP         PTSUNNY   67  54  63 NE6       30.22S
GRANTS         MOSUNNY   66  58  74 E5        30.26R
SILVER CITY      N/A     72  57  60 NW3       30.19R

$$
NMZ407-409-411-412-041500-
SOUTHERN DESERTS

CITY           SKY/WX    TMP DP  RH WIND       PRES   REMARKS
LORDSBURG      PTSUNNY   73  59  60 E16       30.09R
DEMING         PTSUNNY   71  65  81 CALM      30.10R
HOLLOMAN AFB   MOSUNNY   74  61  64 CALM      30.08R
ALAMOGORDO     PTSUNNY   73  57  56 CALM      30.10S
T OR C         MOSUNNY   74  60  61 VRB3      30.13R

$$
NMZ519>523-041500-
CENTRAL VALLEYS/CENTRAL HIGHLANDS

CITY           SKY/WX    TMP DP  RH WIND       PRES   REMARKS
ALBUQUERQUE    MOSUNNY   72  56  57 N5        30.17R
DOUBLE EAGLE   PTSUNNY   70  57  64 VRB6      30.21R
MORIARTY ARPT    N/A     65  56  73 CALM      30.24S
CLINES CORNERS SUNNY     62  58  86 S5        30.26S
BELEN          FAIR      73  56  55 SE3       30.16S
SOCORRO        NOT AVBL

$$
NMZ524>526-539-540-041500-
SOUTHCENTRAL MOUNTAINS

CITY           SKY/WX    TMP DP  RH WIND       PRES   REMARKS
RUIDOSO        NOT AVBL

$$
NMZ527>531-041500-
NORTHEAST HIGHLANDS/NORTHEAST PLAINS

CITY           SKY/WX    TMP DP  RH WIND       PRES   REMARKS
LAS VEGAS      FOG       59  58  96 S14       30.25F VSB 1/4
RATON          CLOUDY    62  57  83 CALM      30.20R
CLAYTON        SUNNY     71  60  68 W18G28    30.10S

$$
NMZ532>537-041500-
EASTCENTRAL PLAINS

CITY           SKY/WX    TMP DP  RH WIND       PRES   REMARKS
TUCUMCARI      SUNNY     72  61  68 W12       30.08R
CANNON AFB     MOSUNNY   68  64  84 S6        30.11R
CLOVIS AIRPORT MOSUNNY   72  63  73 S9          N/A

$$
NMZ028-029-538-041500-
SOUTHEAST PLAINS

CITY           SKY/WX    TMP DP  RH WIND       PRES   REMARKS
ROSWELL        SUNNY     72  63  73 S3        30.07R
ARTESIA        MOSUNNY   73  64  73 S12       30.08R
CARLSBAD       MOSUNNY   74  64  71 S9        30.05S
HOBBS          SUNNY     72  66  83 SE12      30.09R


$$



USA.gov is the U.S. government's official web portal to all federal, state and local government web resources and services.